Location: Anan
(43.3550°N, 0.8171°E)
Time: 12:01:27
(UTC+00:00)

Delta 2 Rocket - Pass Details

Date: 14 May 2026
Orbit: 321 x 413 km, 35.6° (Epoch: 6 June)

Event Time Altitude Azimuth Distance (km) Brightness Sun altitude
Rises 20:36:56 0° 245° (WSW) 2,238 6.7 -13.3°
Reaches altitude 10° 20:39:25 10° 226° (SW) 1,360 5.4 -13.6°
Enters shadow 20:41:26 19° 185° (S) 953 4.2 -13.9°
